Nenana, AK

8:44 AM AKDT on April 29, 2017 (GMT -0800)
Nenana Municipal

Weather History for PANN - February, 2013

Change the Weather History Date:

Sunday, February 10, 2013

  Actual Average Record
Temperature  
Mean Temperature 24 °F -  
Max Temperature 46 °F 8 °F 56 °F (1993)
Min Temperature 1 °F -11 °F -29 °F (2008)
Degree Days  
Heating Degree Days 42    
Moisture  
Dew Point 12 °F    
Average Humidity 83    
Maximum Humidity 93    
Minimum Humidity 71    
Precipitation  
Precipitation 0.16 in - - ()
Sea Level Pressure  
Sea Level Pressure 29.34 in    
Wind  
Wind Speed 3 mph (NW)    
Max Wind Speed 9 mph    
Max Gust Speed -    
Visibility 6 miles    
Events Snow    
Averages and records for this station are not official NWS values.
T = Trace of Precipitation, MM = Missing Value Source: NWS Daily Summary

Daily Weather History Graph

Daily Weather History Graph

Search for Another Location

Airport or City:

Trip Planner

Search our weather history database for the weather conditions in past years. The results will help you decide how hot, cold, wet, or windy it might be!

Date:

Astronomy

Feb. 10, 2013 Rise Set
Actual Time 9:08 AM AKST 5:13 PM AKST
Civil Twilight 8:15 AM AKST 6:07 PM AKST
Nautical Twilight 7:17 AM AKST 7:04 PM AKST
Astronomical Twilight 6:21 AM AKST 8:00 PM AKST
Moon 8:31 AM AKST (2/10) 6:58 PM AKST (2/10)
Length of Visible Light 9h 52m
Length of Day
8h 04m
New Moon, 0% of the Moon is Illuminated
Feb 10
New Moon
Feb 17
First Quarter
Feb 25
Full
Mar 4
Last Quarter
Mar 11
New

Hourly Weather History & Observations

Time (AKST) Temp. Windchill Dew Point Humidity Pressure Visibility Wind Dir Wind Speed Gust Speed Precip Events Conditions
12:53 AM 10.0 °F 3.6 °F 5.0 °F 80% 29.01 in 10.0 mi Variable 3.5 mph - N/A   Clear
1:53 AM 9.0 °F -0.9 °F 3.9 °F 80% 29.01 in 10.0 mi WNW 5.8 mph - N/A   Clear
3:53 AM 10.0 °F -0.9 °F 5.0 °F 80% 28.99 in 10.0 mi NW 6.9 mph - N/A   Clear
4:53 AM 10.9 °F 2.9 °F 5.0 °F 77% 28.99 in 10.0 mi NW 4.6 mph - N/A   Clear
5:53 AM 10.9 °F - 5.0 °F 77% 28.99 in 10.0 mi Calm Calm - N/A   Clear
6:53 AM 6.1 °F - 1.0 °F 80% 29.00 in 10.0 mi Calm Calm - N/A   Clear
7:53 AM 3.9 °F - -0.0 °F 84% 29.01 in 10.0 mi Calm Calm - N/A   Clear
8:53 AM 3.0 °F - -0.9 °F 84% 29.03 in 10.0 mi Calm Calm - N/A   Mostly Cloudy
9:53 AM 1.9 °F - -2.9 °F 80% 29.05 in 10.0 mi Calm Calm - N/A   Clear
10:53 AM 7.0 °F - 1.9 °F 80% 29.08 in 10.0 mi Calm Calm - N/A   Clear
11:53 AM 10.0 °F 3.6 °F 3.9 °F 76% 29.10 in 10.0 mi Variable 3.5 mph - N/A   Mostly Cloudy
12:53 PM 10.9 °F 4.7 °F 5.0 °F 77% 29.15 in 10.0 mi West 3.5 mph - N/A   Clear
1:53 PM 12.0 °F 4.1 °F 5.0 °F 73% 29.20 in 10.0 mi Variable 4.6 mph - N/A   Scattered Clouds
2:53 PM 12.9 °F 2.6 °F 5.0 °F 71% 29.26 in 10.0 mi West 6.9 mph - N/A   Partly Cloudy
3:53 PM 12.9 °F 6.9 °F 6.1 °F 74% 29.30 in 10.0 mi WNW 3.5 mph - N/A   Scattered Clouds
4:15 PM 14.0 °F - 6.8 °F 73% 29.28 in 1.8 mi Calm Calm - 0.00 in Snow Light Snow
4:30 PM 15.8 °F 10.2 °F 8.6 °F 73% 29.29 in 1.0 mi NW 3.5 mph - 0.01 in Snow Light Snow
4:53 PM 16.0 °F 10.4 °F 12.0 °F 84% 29.34 in 1.0 mi WNW 3.5 mph - 0.01 in Snow Light Snow
5:00 PM 15.8 °F - 12.2 °F 86% 29.30 in 0.8 mi Calm Calm - 0.01 in Snow Light Snow
5:10 PM 15.8 °F - 12.2 °F 86% 29.31 in 1.5 mi Calm Calm - 0.01 in Snow Light Snow
5:18 PM 15.8 °F - 12.2 °F 86% 29.31 in 2.0 mi Calm Calm - 0.01 in Snow Light Snow
5:46 PM 17.6 °F 10.7 °F 12.2 °F 79% 29.32 in 1.8 mi NW 4.6 mph - 0.01 in Snow Light Snow
5:53 PM 17.1 °F 8.7 °F 12.9 °F 84% 29.36 in 1.8 mi NW 5.8 mph - 0.01 in Snow Light Snow
6:01 PM 17.6 °F 8.2 °F 12.2 °F 79% 29.32 in 2.0 mi WNW 6.9 mph - 0.01 in Snow Light Snow
6:12 PM 17.6 °F 10.7 °F 12.2 °F 79% 29.33 in 1.5 mi WNW 4.6 mph - 0.01 in Snow Light Snow
6:39 PM 17.6 °F - 14.0 °F 86% 29.34 in 2.0 mi Calm Calm - 0.02 in Snow Light Snow
6:53 PM 18.0 °F - 14.0 °F 84% 29.39 in 2.0 mi Calm Calm - 0.02 in Snow Light Snow
7:02 PM 17.6 °F - 14.0 °F 86% 29.35 in 1.0 mi Calm Calm - 0.00 in Snow Light Snow
7:53 PM 18.0 °F - 15.1 °F 88% 29.42 in 1.8 mi Calm Calm - 0.02 in Snow Light Snow
8:01 PM 17.6 °F - 15.8 °F 93% 29.38 in 2.5 mi Calm Calm - 0.00 in Snow Light Snow
8:11 PM 17.6 °F - 15.8 °F 93% 29.38 in 1.8 mi Calm Calm - 0.01 in Snow Light Snow
8:19 PM 17.6 °F - 15.8 °F 93% 29.39 in 2.5 mi Calm Calm - 0.01 in Snow Light Snow
8:26 PM 17.6 °F - 15.8 °F 93% 29.39 in 4.0 mi Calm Calm - 0.01 in Snow Light Snow
8:53 PM 18.0 °F - 15.1 °F 88% 29.44 in 3.0 mi Calm Calm - 0.01 in Snow Light Snow
9:05 PM 19.4 °F - 15.8 °F 86% 29.41 in 2.0 mi Calm Calm - 0.00 in Snow Light Snow
9:23 PM 19.4 °F - 15.8 °F 86% 29.41 in 5.0 mi Calm Calm - 0.00 in Snow Light Snow
9:53 PM 18.0 °F - 16.0 °F 92% 29.46 in 8.0 mi Calm Calm - 0.00 in   Overcast
10:37 PM 19.4 °F 12.8 °F 15.8 °F 86% 29.44 in 2.5 mi SE 4.6 mph - 0.00 in Snow Light Snow
10:53 PM 18.0 °F - 15.1 °F 88% 29.48 in 1.5 mi Calm Calm - 0.01 in Snow Light Snow
10:56 PM 17.6 °F - 15.8 °F 93% 29.45 in 2.0 mi Calm Calm - 0.00 in Snow Light Snow
11:09 PM 17.6 °F 10.7 °F 14.0 °F 86% 29.46 in 5.0 mi ESE 4.6 mph - 0.00 in Snow Light Snow
11:23 PM 15.8 °F 10.2 °F 12.2 °F 86% 29.47 in 9.0 mi East 3.5 mph - 0.00 in   Overcast
11:36 PM 15.8 °F 10.2 °F 12.2 °F 86% 29.47 in 8.0 mi East 3.5 mph - 0.00 in   Overcast
11:53 PM 15.1 °F 5.2 °F 10.9 °F 84% 29.52 in 10.0 mi East 6.9 mph - 0.00 in   Overcast